Starlink 11514

operational
NORAD ID: 62514 Int'l Des: 2025-004 Owner: SPXS Country: US Constellation: starlink
LEOCIRCULAR

关于 Starlink 11514

正在加载描述...

实时位置

正在加载3D地球...

即将过境

高度历史

Altitude vs Time

uPlot chart will show altitude changes over time

两行轨道根数

1 62514U 25004D 25353.85544286 .00168316 00000-0 12843-2 0 9994
2 62514 42.9995 191.8585 0002408 252.9943 107.0661 15.70921928 54658
Epoch: Dec 19, 2025 • Age: 7 hours

当前状态

高度 360.3 km
速度 7.70 km/s
星下点 41.85°N, 162.47°E
发射日期 Jan 8, 2025
运行时间 0.9 years
类型 internet

技术详情

分类 Payload
质量 960.00 kg
干质量 910.00 kg
总质量 960.00 kg
长度 0.30 m
直径 4.10 m
跨度 29.00 m
形状 Box + pan
制造商 SPXS
平台类型 Starlink V2MD
阶段状态 In Orbit
所有者/国家 SPXS/US

大型星座

Loading constellations...